Location: Hamilton
(37.7830°S, 175.2830°E)
Time: 00:37:36
(UTC+13:00)

SPOT 1/Viking Rocket - Pass Details

Date: 24 January 2019
Orbit: 777 x 794 km, 98.5° (Epoch: 23 February)

Event Time Altitude Azimuth Distance (km) Brightness Sun altitude
Rises 23:02:54 0° 158° (SSE) 3,332 7.2 -23.2°
Reaches altitude 10° 23:05:26 10° 149° (SSE) 2,394 6.3 -23.5°
Enters shadow 23:09:29 35° 103° (ESE) 1,281 4.4 -24.0°
